Weather Roundup
Issued by NWS Chicago, IL

Home | Current Version | Previous Version | Text Only | Print | Product List | Glossary On
Versions: 1 2 3 4 5 6 7 8 9 10 11 12 13 14 15 16 17 18 19 20 21 22 23 24 25 26 27 28 29 30 31 32 33 34 35 36 37 38 39 40 41 42 43 44 45 46 47 48 49 50
000
NZUS59 KLOT 021110
HRRLOT

CHICAGO AREA WEATHER ROUNDUP
NATIONAL WEATHER SERVICE CHICAGO/ROMEOVILLE IL
600 AM CDT THU OCT 02 2014

NOTE: "FAIR" INDICATES FEW OR NO CLOUDS BELOW 12,000 FEET WITH NO
SIGNIFICANT WEATHER AND/OR OBSTRUCTIONS TO VISIBILITY.

* THESE STATIONS ARE NOT UNDER NWS QUALITY CONTROL. THEY ALSO MAY NOT
  REPORT WEATHER SUCH AS PRECIPITATION OR FOG.

ILZ005-006-012>014-019>023-021200-
NORTHEAST ILLINOIS

CITY           SKY/WX    TMP DP  RH WIND       PRES   REMARKS
OHARE          CLOUDY    64  57  78 CALM      29.85S
MIDWAY         CLOUDY    66  59  78 S9        29.86S
AURORA         LGT RAIN  64  60  87 N7        29.87R FOG
LANSING*       CLOUDY    63  58  83 S6        29.88S
JOLIET*        CLOUDY    64  61  90 SE7       29.85S
WAUKEGAN       CLOUDY    62  57  83 SE7       29.86
DUPAGE AIRPORT LGT RAIN  64  60  87 CALM      29.87R
WHEELING       CLOUDY    64  58  80 S3        29.88R
KANKAKEE*      CLOUDY    63  62  95 SE6       29.90R
MORRIS*        CLOUDY    66  65  94 S10       29.84S
LEWIS AIRPORT* CLOUDY    64  59  85 S12       29.85S
NORTHERLY IS     N/A     63  58  83 SE8         N/A
$$

WIZ051-052-058>065-066-070>072-021200-
SOUTHEAST WISCONSIN

CITY           SKY/WX    TMP DP  RH WIND       PRES   REMARKS
MILWAUKEE      CLOUDY    62  56  80 S6        29.86R
RACINE*        CLOUDY    62  57  83 S12       29.87S
BURLINGTON     CLOUDY    57  56  96 CALM      29.85S
WAUKESHA       CLOUDY    57  55  94 CALM      29.86S
WEST BEND      RAIN      59  55  88 CALM      29.85S
$$

INZ001>003-010>013-019-020-021200-
NORTHWEST INDIANA

CITY           SKY/WX    TMP DP  RH WIND       PRES   REMARKS
GARY*          MOCLDY    64  57  77 S7        29.88F
MICHIGAN CITY* NOT AVBL
RENSSELAER*    NOT AVBL
VALPARAISO     CLOUDY    61  55  81 SE6       29.92R
$$

LMZ740>746-021200-
SOUTHERN LAKE MICHIGAN

STATION/POSITION TIME  SKY/WX   TEMP WIND        PRES    VSBY
                                AIR  DIR/SP/G
                 (UTC)          (F)  (DEG/KT/KT) (MB)    (MI)
HARRISON CRIB    1100            63  150/ 17/ 21   N/A
BURNHAM HARBOR   1100            63  150/  3/ 10   N/A
CALUMET HARBOR   1100            63  150/  8/ 11 1010.2S
BURNS HARBOR     NOT AVBL
MICHIGAN CITY    1100            63  130/ 13/ 18   N/A
$$

ABBREVIATIONS USED IN REMARKS
   TC - TEMPERATURE IN CELSIUS
  WCI - WIND CHILL INDEX
   HX - HEAT INDEX
  VSB - VISIBILITY
$$



USA.gov is the U.S. government's official web portal to all federal, state and local government web resources and services.